Flag for Austria Weather past 2 weeks in Hallein, Salzburg, Austria

Now
45 °F

Sprinkles. Passing clouds.


Feels Like: 36 °F
Forecast: 31 / 37 °F
Wind: 21 mph from West

Location: Salzburg-Flughafen

Current Time: Dec 20, 2014 at 8:51:25 PM

Latest Report: Dec 20, 2014 at 7:50 PM


Visibility: N/A

Pressure: 30.21 "Hg

Humidity: 61%

Dew point: 32 °F

Location of HalleinLocation

Historic Weather in Hallein — Graph

°F

Hallein temperature yesterday

Maximum temperature yesterday: 55 °F (at 1:50 PM)
Minimum temperature yesterday: 37 °F (at 8:20 AM)
Average temperature yesterday: 47 °F

Past Weeks' High & Low Weather Summary

 TemperatureHumidityPressure
High55 °F (Dec 19, 1:50 PM)100% (Dec 5, 7:20 PM)30.42 "Hg (Dec 5, 7:20 PM)
Low23 °F (Dec 10, 7:20 AM)46% (Dec 12, 12:20 PM)29.83 "Hg (Dec 12, 12:50 PM)
Average40 °F82%30.07 "Hg
* Reported Dec 5 7:20 PM — Dec 20 7:20 PM, Hallein, Weather by CustomWeather, © 2014

Note: Actual official high and low records may vary slightly from our data, if they occured in-between our weather recording intervals... More about our weather records

Advertising

Hallein weather history for previous 24 hours

 ConditionsComfort  
Time TempWeatherWind HumidityBarometerVisibility
7:20 PM
Dec 20
43 °FSprinkles. Passing clouds.14 mph66%30.21 "HgN/A
6:50 PM43 °FSprinkles. Passing clouds.14 mph71%30.21 "HgN/A
6:20 PM43 °FSprinkles. Passing clouds.10 mph71%30.18 "HgN/A
5:50 PM43 °FPassing clouds.12 mph71%30.18 "HgN/A
5:20 PM43 °FPassing clouds.13 mph76%30.18 "HgN/A
4:50 PM45 °FPassing clouds.16 mph71%30.15 "HgN/A
4:20 PM46 °FPassing clouds.15 mph66%30.15 "HgN/A
3:50 PM46 °FPartly sunny.15 mph71%30.15 "HgN/A
3:20 PM48 °FPartly sunny.13 mph71%30.15 "HgN/A
2:50 PM48 °FScattered clouds.15 mph66%30.15 "HgN/A
2:20 PM48 °FScattered clouds.13 mph71%30.15 "HgN/A
1:50 PM48 °FPartly sunny.6 mph71%30.15 "HgN/A
1:20 PM48 °FPartly sunny.6 mph71%30.15 "HgN/A
12:50 PM46 °FPartly sunny.3 mph76%30.18 "HgN/A
12:20 PM50 °FPartly sunny.1 mph67%30.21 "HgN/A
11:50 AM48 °FPartly sunny.3 mph66%30.21 "HgN/A
11:20 AM46 °FPartly sunny.3 mph76%30.24 "HgN/A
10:50 AM46 °FPartly sunny.6 mph71%30.24 "HgN/A
10:20 AM45 °FPartly sunny.9 mph76%30.27 "HgN/A
9:50 AM45 °FScattered showers. Broken clouds.7 mph76%30.27 "HgN/A
9:20 AM45 °FBroken clouds.8 mph71%30.27 "HgN/A
8:50 AM45 °FScattered showers. Broken clouds.7 mph76%30.27 "HgN/A
8:20 AM45 °FSprinkles. Broken clouds.9 mph71%30.27 "HgN/A
7:50 AM45 °FPassing clouds.6 mph71%30.27 "HgN/A
7:20 AM46 °FPassing clouds.7 mph66%30.27 "HgN/A
6:50 AM45 °FPassing clouds.6 mph81%30.24 "HgN/A
6:20 AM45 °FPartly cloudy.12 mph81%30.24 "HgN/A
5:50 AM45 °FSprinkles. Partly cloudy.8 mph87%30.24 "HgN/A
5:20 AM46 °FSprinkles. Partly cloudy.13 mph82%30.24 "HgN/A
4:50 AM46 °FPartly cloudy.14 mph82%30.21 "HgN/A
4:20 AM48 °FPartly cloudy.12 mph76%30.21 "HgN/A
3:50 AM46 °FScattered showers. Partly cloudy.9 mph82%30.18 "HgN/A
3:20 AM48 °FSprinkles. Passing clouds.9 mph76%30.18 "HgN/A
2:50 AM48 °FSprinkles. Passing clouds.10 mph76%30.18 "HgN/A
2:20 AM48 °FSprinkles. Partly cloudy.13 mph82%30.15 "HgN/A
1:50 AM50 °FSprinkles. Partly cloudy.12 mph71%30.15 "HgN/A
1:20 AM48 °FRain. Partly cloudy.7 mph87%30.15 "HgN/A
12:50 AM46 °FLight rain. Passing clouds.3 mph93%30.15 "HgN/A
12:20 AM48 °FRain. Passing clouds.13 mph87%30.12 "HgN/A
11:50 PM
Dec 19
48 °FRain. Partly cloudy.14 mph82%30.12 "HgN/A
11:20 PM52 °FLight rain. Partly cloudy.9 mph67%30.09 "HgN/A
10:50 PM52 °FPartly cloudy.6 mph62%30.09 "HgN/A
10:20 PM52 °FPartly cloudy.9 mph62%30.07 "HgN/A
9:50 PM52 °FPartly cloudy.3 mph58%30.07 "HgN/A
9:20 PM48 °FPassing clouds.3 mph76%30.07 "HgN/A
8:50 PM46 °FPartly cloudy.3 mph82%30.07 "HgN/A
8:20 PM45 °FPassing clouds.3 mph87%30.04 "HgN/A
Weather by CustomWeather, © 2014

See weather overviewHow to use our weather pages